星链-30866 (STARLINK-30866 )

导读

STARLINK-30866是美国SpaceX公司星链(Starlink)星座中的一颗卫星,于2023年11月8日发射升空。星链星座旨在为全球提供高速卫星互联网服务,该卫星入轨后承担着增强全球网络覆盖、提升信号传输能力的任务,也是美国星链星座部署扩张过程中的一环。

基本信息
目录编号:
58237
目录名称:
STARLINK-30866
国际标识:
2023-171H
轨道中心:
EARTH
卫星名称:
星链-30866
卫星全名:
星链-30866 (STARLINK-30866 )
卫星状态:
在轨 (已飞行953 天)
发射日期:
2023-11-08 UTC
国别 :
美国 (US)
星等 :
--
轨道信息
数据来源 国际轨道数据 AOE轨道数据
星历时间 2026-06-16T19:26:34+0800
1天前
查看轨道信息
2026-06-13T01:00:00+0800
5天前
查看轨道信息
半长轴 6861.2km 6861.168km
偏心率 0.0000635 0.0000923
轨道倾角 43.005° 43.003°
近地点辐角 270.950° 205.260°
升交点赤经 87.251° 108.534°
平近点角 89.128° 286.795°
近地点 482.627km 482.397km
远地点 483.499km 483.665km
周期 94.267分钟 94.266分钟
每日圈数 15.275754 15.275861
详细信息
固有亮度:
5
最大亮度:
0.3
卫星平台:
Starlink v2.0 mini
覆盖范围:
全球
运营商:
太空探索技术公司
运营商所在国:
美国
制造商(研发单位):
太空探索技术公司
制造商所在国:
美国
使用方式:
暂无
卫星简介
星链(Starlink)计划是由太空探索技术公司(SpaceX)提出的一个巨型低轨卫星互联网星座项目,计划在2019年至2024年间在太空搭建由约1.2万颗卫星组成的“星链”网络,其中1584颗将部署在地球上空550千米处的近地轨道,并从2020年开始工作。该卫星仍在工作。
2D轨道图
3D轨道图
轨道高度分析图
轨道倾角分析图
轨道综合分析图
查看轨道综合分析图